Weather History for Baltimore Martin, MD

Change the Weather History Date:

Saturday, October 6, 2012

  Actual Average Record
Temperature  
Mean Temperature 65 °F -  
Max Temperature 80 °F 66 °F 87 °F (1997)
Min Temperature 50 °F 50 °F 39 °F (1996)
Growing Degree Days 15 (Base 50)    
Moisture  
Dew Point 56 °F    
Average Humidity 75    
Maximum Humidity 88    
Minimum Humidity 48    
Precipitation  
Precipitation 0.00 in - - ()
Sea Level Pressure  
Sea Level Pressure 29.94 in    
Wind  
Wind Speed 5 mph (SW)    
Max Wind Speed 23 mph    
Max Gust Speed 29 mph    
Visibility 10 miles    
Events      
Averages and records for this station are not official NWS values.
T = Trace of Precipitation, MM = Missing Value Source: NWS Daily Summary

Daily Weather History Graph

Daily Weather History Graph

Search for Another Location

Airport:

Trip Planner

Search our weather history database for the weather conditions in past years. The results will help you decide how hot, cold, wet, or windy it might be!

Date:

Astronomy

Oct. 06, 2012 Rise Set
Actual Time 7:06 AM EDT 6:39 PM EDT
Civil Twilight 6:40 AM EDT 7:06 PM EDT
Nautical Twilight 6:09 AM EDT 7:37 PM EDT
Astronomical Twilight 5:37 AM EDT 8:08 PM EDT
Moon 10:54 PM EDT (10/6) 12:58 PM EDT (10/6)
Length of Visible Light 12h 26m
Length of Day
11h 32m
Waning Gibbous, 65% of the Moon is Illuminated
Oct 6
Waning Gibbous
Oct 8
Last Quarter
Oct 15
New
Oct 21
First Quarter
Oct 29
Full

Hourly Weather History & Observations

Time (EDT) Temp. Heat Index Dew Point Humidity Pressure Visibility Wind Dir Wind Speed Gust Speed Precip Events Conditions
12:15 AM 68.0 °F - 60.8 °F 78% 29.96 in 10.0 mi SSW 4.6 mph - N/A   Clear
12:36 AM 68.0 °F - 60.8 °F 78% 29.96 in 10.0 mi South 4.6 mph - N/A   Clear
12:57 AM 68.0 °F - 59.0 °F 73% 29.95 in 10.0 mi South 3.5 mph - N/A   Clear
1:18 AM 68.0 °F - 59.0 °F 73% 29.94 in 10.0 mi South 4.6 mph - N/A   Clear
1:39 AM 68.0 °F - 59.0 °F 73% 29.94 in 10.0 mi Calm Calm - N/A   Clear
2:03 AM 64.4 °F - 59.0 °F 83% 29.94 in 10.0 mi WSW 3.5 mph - N/A   Clear
2:24 AM 62.6 °F - 59.0 °F 88% 29.93 in 10.0 mi Calm Calm - N/A   Clear
3:06 AM 62.6 °F - 59.0 °F 88% 29.92 in 10.0 mi Calm Calm - N/A   Clear
3:27 AM 64.4 °F - 60.8 °F 88% 29.91 in 10.0 mi Calm Calm - N/A   Clear
3:48 AM 64.4 °F - 60.8 °F 88% 29.90 in 10.0 mi Calm Calm - N/A   Clear
4:09 AM 64.4 °F - 60.8 °F 88% 29.90 in 10.0 mi South 3.5 mph - N/A   Clear
4:30 AM 64.4 °F - 60.8 °F 88% 29.90 in 10.0 mi Calm Calm - N/A   Clear
4:51 AM 64.4 °F - 60.8 °F 88% 29.89 in 10.0 mi South 8.1 mph - N/A   Clear
5:33 AM 64.4 °F - 59.0 °F 83% 29.89 in 10.0 mi South 3.5 mph - N/A   Clear
7:54 AM 66.2 °F - 60.8 °F 83% 29.89 in 10.0 mi SW 6.9 mph - N/A   Scattered Clouds
8:54 AM 68.0 °F - 62.6 °F 83% 29.87 in 10.0 mi SSW 5.8 mph - N/A   Partly Cloudy
9:45 AM 71.6 °F - 62.6 °F 73% 29.86 in 10.0 mi South 6.9 mph - N/A   Scattered Clouds
10:45 AM 73.4 °F - 62.6 °F 69% 29.86 in 10.0 mi South 6.9 mph - N/A   Scattered Clouds
11:45 AM 75.2 °F - 62.6 °F 65% 29.85 in 10.0 mi South 5.8 mph - N/A   Mostly Cloudy
12:50 PM 80.6 °F 81.1 °F 59.0 °F 48% 29.85 in 10.0 mi West 13.8 mph - N/A   Mostly Cloudy
1:45 PM 75.2 °F - 59.0 °F 57% 29.85 in 10.0 mi West 23.0 mph 28.8 mph N/A   Mostly Cloudy
2:55 PM 71.6 °F - 57.2 °F 60% 29.88 in 10.0 mi WNW 20.7 mph 26.5 mph N/A   Mostly Cloudy
3:55 PM 71.6 °F - 51.8 °F 50% 29.90 in 10.0 mi West 21.9 mph 28.8 mph N/A   Scattered Clouds
4:50 PM 69.8 °F - 50.0 °F 49% 29.91 in 10.0 mi West 17.3 mph 23.0 mph N/A   Scattered Clouds
5:45 PM 66.2 °F - 48.2 °F 52% 29.94 in 10.0 mi West 16.1 mph 23.0 mph N/A   Partly Cloudy
8:50 PM 55.4 °F - 46.4 °F 72% 30.03 in 10.0 mi NNW 4.6 mph - N/A   Partly Cloudy
9:45 PM 53.6 °F - 46.4 °F 77% 30.05 in 10.0 mi Calm Calm - N/A   Partly Cloudy
10:15 PM 51.8 °F - 44.6 °F 76% 30.05 in 10.0 mi Calm Calm - N/A   Clear
10:36 PM 51.8 °F - 44.6 °F 76% 30.06 in 10.0 mi Calm Calm - N/A   Clear
10:57 PM 50.0 °F - 44.6 °F 82% 30.06 in 10.0 mi Calm Calm - N/A   Clear
11:18 PM 51.8 °F - 44.6 °F 76% 30.05 in 10.0 mi Calm Calm - N/A   Clear
11:39 PM 50.0 °F - 44.6 °F 82% 30.06 in 10.0 mi Calm Calm - N/A   Clear